Погода в Бирзаи

Поиск расширенной информации на нашем сайте:

Полезная информация:

Новости сайта



02.01.2020
Опубликован Долгосрочный прогноз погоды по городам России и ближнего зарубежья на январь 2020 года.
Карты: Прогноз на январь и февраль 2020 года, Сравнение прогнозируемой аномалии приземной температуры воздуха на январь 2020 года по разным моделям.




Погода в Бирзаи - сегодня

Время (UTC), дата Ветер
(°,м/с) 
Видим.   Явления Облачность Т
(°С)
Тd
(°С)
f(%) Тe
(°С)
Pmin
(гПа)
dP
(гПа)
Po
(мм)
O2
(г/м3)
Тmin Tmax R s Состояние
почвы
09 16.01.21 080 (В) 2-5{05}  15000 м  снежные кристаллы  6/4 600 м верхняя 
[Sc|Ci fib]
-15.7 -18.1 82 -18  1015.9  1.4  756  325           
12 16.01.21 060 (СВ) 2-4{07}  10 км  снежные кристаллы  4/3 600 м 
[Sc]
-16.3 -19.4 77 -19  1016.7  0.7  756  326      0.2  14   
15 16.01.21 050 (СВ) 1-2{06}  4100 м  дымка{снег}  4/0 верхняя 
[Ci fib]
-19.1 -20.9 86 -19  1018.3  1.5  757  330           
18 16.01.21 тихо () -1{03}  7000 м  дымка{снег}  ясно 
-20.4 -22.3 85 -20  1019.5  1.2  758  332    -15.7  0.2  14   
21 16.01.21 090 (В) 1-1{02}  12000 м    ясно <0100 м 
-22.8 -24.7 84 -23  1020.4  0.8  759  335           
00 17.01.21 330 (СЗ) 1-1{02}  9000 м  дымка [диам. изморози 0 мм]  ясно 
-22.8 -25.1 81 -23  1020.1  -0.3  759  335        14   
03 17.01.21 320 (СЗ) 1-1{02}  7000 м  дымка [диам. изморози 0.1 мм]  ясно 
-22.6 -25 81 -23  1020.9  0.8  759  335           
06 17.01.21 060 (СВ) 1-1{02}  14000 м  [диам. изморози 1 мм]  ясно 
-25.7 -28.1 80 -26  1021.3  0.3  760  340  -25.7      14  равномерный
сухой снег
100% 
09 17.01.21 280 (З) 1-2{03}  2000 м  дым  3/0 верхняя 
[Ci fib]
-20.7 -23.2 80 -21  1022.4  1.3  760  333           
12 17.01.21 250 (З) 1-2{03}  2500 м  слаб. снег [диам. изморози 1 мм]  5/5 480 м 
[St]
-17 -19.8 79 -17  1022.3  760  328      0.0  14   
15 17.01.21 240 (ЮЗ) 1-2{03}  2500 м  слаб. снег [диам. изморози 1 мм]  8/8 720 м 
[Sc]
-18.4 -20.4 84 -19  1022.7  0.4  761  330           
18 17.01.21 200 (Ю) 1-1{03}  2800 м  дым{снег} [диам. изморози 1 мм]  ясно 
-21.7 -23.7 84 -22  1022.8  761  335    -16.7  0.0  14   
21 17.01.21 180 (Ю) 1-1{02}  3200 м  слаб. снег  10/0 средняя 
[Ac As]
-18.6 -20.7 83 -19  1022.4  -0.3  761  330           
00 18.01.21 200 (Ю) 1-1{02}  4500 м  слаб. снег [диам. изморози 1 мм]  10/10 360 м 
[St]
-16.4 -18.4 84 -17  1022  -0.3  760  327      0.0  14   
03 18.01.21 190 (Ю) 1-2{03}  7000 м  слаб. снег [диам. изморози 0 мм]  10/10 1500 м 
[St]
-14.7 -16.6 85 -15  1021.2  -0.7  760  325           
06 18.01.21 170 (Ю) 3-4{05}  8000 м  дымка{снег}  10/0 средняя 
[Ac As]
-13.7 -15.9 83 -17  1020.9  -0.3  759  324  -21.7    0.0  14  равномерный
сухой снег
100% 
09 18.01.21 190 (Ю) 2-3{05}  6000 м  дымка  10/0 средняя 
[Ac As]
-12.9 -15.9 78 -15  1021.2  0.4  760  323           
12 18.01.21 170 (Ю) 2-4{04}  6000 м  дымка  10/0 средняя 
[Ac As]
-11.8 -14.9 78 -14  1020.2  -0.9  759  321        13   
15 18.01.21 160 (Ю) 2-4{05}  9000 м  дымка  10/5 1500 м средняя 
[Sc|Ac As]
-12.3 -15.1 80 -14  1020  -0.3  759  322           
18 18.01.21 160 (Ю) 2-4{05}  8000 м  слаб. снег  10/10 1500 м 
[Sc]
-11.9 -14.7 80 -14  1019.6  -0.4  759  321    -11.5  0.0  13   
21 18.01.21 170 (Ю) 2-4{05}  7000 м  дымка  10/4 1500 м средняя 
[Sc|Ac As]
-11.7 -14.1 82 -14  1019.1  -0.5  758  320           
00 19.01.21 170 (Ю) 2-4{04}  9000 м  слаб. снег  10/0 средняя 
[As op]
-11.3 -13.6 83 -13  1018.3  -0.7  758  320      0.0  13   
03 19.01.21 160 (Ю) 2-3{04}  10 км  {снег}  10/4 330 м средняя 
[St|As trans]
-11.3 -13.3 85 -13  1017.6  -0.8  757  319           
06 19.01.21 180 (Ю) 2-3{04}  9000 м  дым{снег}  10/10 360 м 
[St]
-9.8 -11.7 86 -12  1017.3  -0.1  757  317  -11.9    0.0  13  равномерный
сухой снег
100% 
09 19.01.21 160 (Ю) 3-5{05}  8000 м  дым  10/10 450 м 
[St]
-9.1 -11.3 84 -12  1017.4  757  317           
Время (UTC), дата Ветер
(°,м/с) 
Видим.   Явления Облачность Т
(°С)
Тd
(°С)
f(%) Тe
(°С)
Pmin
(гПа)
dP
(гПа)
Po
(мм)
O2
(г/м3)
Тmin Tmax R s Состояние
почвы

Для получения пояснительной информации подведите курсор к названию столбца.

ПОГОДА в Бирзаи - архив

Всё, что Вы хотите узнать о погоде в Бирзаи - удобно и подробно!

Выберите нужную дату (начиная с 1 января 2019* года) и нажмите кнопку "Найти".
Будут отображены архивные сводки погоды по пункту Бирзаи, начиная с указанной даты.


Отображать данные в формате CSV (для использования в таблицах Excel)


Внимание! Наш архив погоды предназначен исключительно для личного некоммерческого использования в познавательных целях. Если Вам необходимы официальные справки о состоянии погоды (для производственных, юридических, коммерческих и т.п. целей), обращайтесь в органы Росгидромета.

*Примечание: данная дата относится к архиву по метеостанциям СССР (Россия, СНГ, Балтия).
Архив по метеостанциям Зарубежной Европы и Азии (кроме Китая) хранится 10 дней, по другим регионам земного шара (Китай, Африка, Америка, Австралия, Океания) - 1 день.

Бирзаи - район местоположения метеостанции


Название, широта, долгота, высота метеостанции:
Бирзаи 56.2°ш. 24.8°д. 62 м над ур. моря [Литва]

Дополнительная информация

В oтличие oт бoльшинства пoгoдных сайтoв мы публикуем пoдрoбную метеoинфoрмацию в детальнoм прoфессиoнальнoм фoрмате.

Характеристики температуры и влажнoсти вoздуха измеряются на высoте 2 м в тени вдали oт зданий и деревьев.
Скoрoсть ветра измеряется на высoте 10 м (на урoвне рoста челoвека скoрoсть ветра ниже в 1.5-2 раза). Если метеoстанция нахoдится в гoрoде или в лесу, тo скoрoсть ветра занижена на 2-4 м/с пo сравнению с oткрытым местoм. Скoрoсть ветра над акватoриями крупных рек и oзёр, а также на вершинах хoлмoв на 2-5 м/с выше, чем в oбычных услoвиях.
Атмoсфернoе давление в разных тoчках местнoсти мoжет значительнo oтличаться oт давления на метеoстанции, в зависимoсти oт услoвий рельефа (при пoдъёме на 10 м давление пoнижается примернo на 1 мм рт.ст.).